Dades meteomassalio
Diari Summary for Marc 29, 2017 Units:  Metric    English   Both
« Previous Day
Next Day »
Diari Semanal Mensual Anual Personalitzat
  Maxima: Minima: Mijana:
Temperatura: -17.8 °C -15.6 °C -10.5 °C
Rosada: -17.8 °C -16.3 °C -14.3 °C
Humitat: Humidity % 38 % 67 %
Velocitat del vent: 0 km/h 0 km/h 3.7 km/h
Racha vent: 0 km/h - -
Vent:- - ESE
Pressio: 0 hPa 34669.3 hPa -
Pluja: 0 mm    
Historical Graphs
 
 
Tabular Data for Marc 29, 2017
Time Temperature Dew Point Pressure Wind Wind Speed Wind Gust Humidity Rainfall Rate (Hourly) solar Conditions
-17.8 °C -17.8 °C 0 hPa Calm     Humidity % 0 mm SolarRadiationWatts/m^2 W/m2 Conditions
00:01 -13.1 °C -14.6 °C 34818.2 hPa Calm     84 % 0 mm 0.0 W/m2 RA
00:06 -13.2 °C -14.6 °C 34818.2 hPa Calm     84 % 0 mm 0.0 W/m2 CLR
00:11 -13.2 °C -14.6 °C 34818.2 hPa Calm     84 % 0 mm 0.0 W/m2 CLR
00:16 -13.3 °C -14.7 °C 34818.2 hPa Calm     84 % 0 mm 0.0 W/m2 CLR
00:21 -13.3 °C -14.6 °C 34818.2 hPa Calm     85 % 0 mm 0.0 W/m2 CLR
00:26 -13.3 °C -14.7 °C 34818.2 hPa Calm     85 % 0 mm 0.0 W/m2 CLR
00:31 -13.3 °C -14.7 °C 34831.8 hPa Calm     85 % 0 mm 0.0 W/m2 CLR
00:36 -13.3 °C -14.7 °C 34831.8 hPa Calm     85 % 0 mm 0.0 W/m2 CLR
00:41 -13.3 °C -14.8 °C 34831.8 hPa Calm     84 % 0 mm 0.0 W/m2 CLR
00:46 -13.3 °C -14.8 °C 34831.8 hPa Calm     84 % 0 mm 0.0 W/m2 CLR
00:51 -13.4 °C -14.7 °C 34818.2 hPa Calm     85 % 0 mm 0.0 W/m2 CLR
00:56 -13.4 °C -14.8 °C 34831.8 hPa Calm     85 % 0 mm 0.0 W/m2 CLR
01:01 -13.4 °C -14.8 °C 34831.8 hPa Calm     85 % 0 mm 0.0 W/m2 CLR
01:06 -13.5 °C -14.8 °C 34831.8 hPa Calm     85 % 0 mm 0.0 W/m2 CLR
01:11 -13.7 °C -14.9 °C 34831.8 hPa Calm     85 % 0 mm 0.0 W/m2 CLR
01:16 -13.7 °C -15 °C 34831.8 hPa Calm     85 % 0 mm 0.0 W/m2 CLR
01:21 -13.8 °C -14.9 °C 34831.8 hPa Calm     86 % 0 mm 0.0 W/m2 CLR
01:26 -13.8 °C -15 °C 34831.8 hPa Calm     86 % 0 mm 0.0 W/m2 CLR
01:31 -13.9 °C -15.1 °C 34831.8 hPa Calm     86 % 0 mm 0.0 W/m2 CLR
01:36 -13.9 °C -15.1 °C 34831.8 hPa Calm     87 % 0 mm 0.0 W/m2 CLR
01:41 -13.9 °C -15.1 °C 34831.8 hPa Calm     87 % 0 mm 0.0 W/m2 CLR
01:46 -13.9 °C -15.1 °C 34831.8 hPa Calm     87 % 0 mm 0.0 W/m2 CLR
01:51 -13.9 °C -15.1 °C 34831.8 hPa Calm     87 % 0 mm 0.0 W/m2 CLR
01:56 -13.9 °C -15.1 °C 34831.8 hPa Calm     87 % 0 mm 0.0 W/m2 CLR
02:01 -14 °C -15.1 °C 34831.8 hPa Calm     87 % 0 mm 0.0 W/m2 CLR
02:06 -14.1 °C -15.2 °C 34831.8 hPa Calm     87 % 0 mm 0.0 W/m2 CLR
02:11 -14.1 °C -15.1 °C 34831.8 hPa Calm     88 % 0 mm 0.0 W/m2 CLR
02:16 -14 °C -15.1 °C 34831.8 hPa Calm     87 % 0 mm 0.0 W/m2 CLR
02:21 -14.1 °C -15.2 °C 34831.8 hPa Calm     87 % 0 mm 0.0 W/m2 CLR
02:26 -14.1 °C -15.2 °C 34818.2 hPa Calm     87 % 0 mm 0.0 W/m2 CLR
02:31 -14.2 °C -15.3 °C 34818.2 hPa Calm     87 % 0 mm 0.0 W/m2 CLR
02:36 -14.2 °C -15.2 °C 34818.2 hPa Calm     88 % 0 mm 0.0 W/m2 CLR
02:41 -14.1 °C -15.1 °C 34818.2 hPa Calm     88 % 0 mm 0.0 W/m2 CLR
02:46 -14.1 °C -15.2 °C 34818.2 hPa Calm     87 % 0 mm 0.0 W/m2 CLR
02:51 -14.2 °C -15.3 °C 34818.2 hPa Calm     87 % 0 mm 0.0 W/m2 CLR
02:56 -14.2 °C -15.2 °C 34818.2 hPa Calm     88 % 0 mm 0.0 W/m2 CLR
03:01 -14.3 °C -15.3 °C 34818.2 hPa Calm     88 % 0 mm 0.0 W/m2 CLR
03:06 -14.3 °C -15.3 °C 34818.2 hPa Calm     88 % 0 mm 0.0 W/m2 CLR
03:11 -14.3 °C -15.3 °C 34818.2 hPa Calm     88 % 0 mm 0.0 W/m2 CLR
03:16 -14.3 °C -15.3 °C 34818.2 hPa Calm     88 % 0 mm 0.0 W/m2 CLR
03:21 -14.3 °C -15.3 °C 34818.2 hPa Calm     88 % 0 mm 0.0 W/m2 CLR
03:26 -14.3 °C -15.3 °C 34818.2 hPa Calm     88 % 0 mm 0.0 W/m2 CLR
03:31 -14.4 °C -15.4 °C 34818.2 hPa Calm     88 % 0 mm 0.0 W/m2 CLR
03:32 -14.4 °C -15.4 °C 34818.2 hPa Calm     88 % 0 mm 0.0 W/m2 CLR
03:37 -14.5 °C -15.5 °C 34818.2 hPa Calm     88 % 0 mm 0.0 W/m2 CLR
03:42 -14.5 °C -15.5 °C 34818.2 hPa Calm     88 % 0 mm 0.0 W/m2 CLR
03:47 -14.6 °C -15.4 °C 34818.2 hPa Calm     89 % 0 mm 0.0 W/m2 CLR
03:52 -14.6 °C -15.5 °C 34818.2 hPa Calm     89 % 0 mm 0.0 W/m2 CLR
03:57 -14.6 °C -15.5 °C 34818.2 hPa Calm     89 % 0 mm 0.0 W/m2 CLR
04:02 -14.6 °C -15.5 °C 34818.2 hPa Calm     89 % 0 mm 0.0 W/m2 CLR
04:07 -14.6 °C -15.5 °C 34808.1 hPa Calm     89 % 0 mm 0.0 W/m2 CLR
04:12 -14.6 °C -15.6 °C 34808.1 hPa Calm     89 % 0 mm 0.0 W/m2 CLR
04:17 -14.7 °C -15.6 °C 34808.1 hPa Calm     89 % 0 mm 0.0 W/m2 CLR
04:22 -14.7 °C -15.7 °C 34808.1 hPa Calm     89 % 0 mm 0.0 W/m2 CLR
04:27 -14.8 °C -15.7 °C 34808.1 hPa Calm     89 % 0 mm 0.0 W/m2 CLR
04:32 -14.8 °C -15.6 °C 34808.1 hPa Calm     90 % 0 mm 0.0 W/m2 CLR
04:37 -14.8 °C -15.7 °C 34808.1 hPa Calm     90 % 0 mm 0.0 W/m2 CLR
04:42 -14.8 °C -15.7 °C 34808.1 hPa Calm     90 % 0 mm 0.0 W/m2 CLR
04:47 -14.9 °C -15.7 °C 34808.1 hPa Calm     90 % 0 mm 0.0 W/m2 CLR
04:52 -14.9 °C -15.8 °C 34808.1 hPa Calm     90 % 0 mm 0.0 W/m2 CLR
04:57 -14.9 °C -15.8 °C 34808.1 hPa Calm     90 % 0 mm 0.0 W/m2 CLR
05:02 -14.9 °C -15.8 °C 34808.1 hPa Calm     90 % 0 mm 0.0 W/m2 CLR
05:07 -14.9 °C -15.8 °C 34808.1 hPa Calm     90 % 0 mm 0.0 W/m2 CLR
05:12 -14.9 °C -15.8 °C 34808.1 hPa Calm     90 % 0 mm 0.0 W/m2 CLR
05:17 -15.1 °C -15.9 °C 34808.1 hPa Calm     90 % 0 mm 0.0 W/m2 CLR
05:22 -15.1 °C -15.9 °C 34808.1 hPa Calm     90 % 0 mm 0.0 W/m2 CLR
05:27 -15.2 °C -16 °C 34808.1 hPa Calm     90 % 0 mm 0.0 W/m2 CLR
05:32 -15.2 °C -16.1 °C 34808.1 hPa Calm     90 % 0 mm 0.0 W/m2 CLR
05:37 -15.2 °C -15.9 °C 34797.9 hPa Calm     91 % 0 mm 0.0 W/m2 CLR
05:42 -15.2 °C -15.9 °C 34797.9 hPa Calm     91 % 0 mm 0.0 W/m2 CLR
05:47 -15.2 °C -15.9 °C 34808.1 hPa Calm     91 % 0 mm 0.0 W/m2 CLR
05:52 -15.2 °C -15.9 °C 34808.1 hPa Calm     91 % 0 mm 0.0 W/m2 CLR
05:57 -15.2 °C -15.9 °C 34808.1 hPa Calm     91 % 0 mm 0.0 W/m2 CLR
06:02 -15.2 °C -15.9 °C 34808.1 hPa Calm     91 % 0 mm 0.0 W/m2 CLR
06:07 -15.2 °C -16 °C 34808.1 hPa Calm     91 % 0 mm 0.0 W/m2 CLR
06:12 -15.3 °C -16.1 °C 34808.1 hPa Calm     91 % 0 mm 0.0 W/m2 CLR
06:17 -15.4 °C -16.1 °C 34808.1 hPa Calm     91 % 0 mm 0.0 W/m2 CLR
06:22 -15.4 °C -16.2 °C 34808.1 hPa Calm     91 % 0 mm 0.0 W/m2 CLR
06:27 -15.5 °C -16.3 °C 34808.1 hPa Calm     91 % 0 mm 0.0 W/m2 CLR
06:32 -15.6 °C -16.3 °C 34808.1 hPa Calm     91 % 0 mm 0.0 W/m2 CLR
06:37 -15.5 °C -16.2 °C 34808.1 hPa Calm     92 % 0 mm 0.0 W/m2 CLR
06:42 -15.5 °C -16.2 °C 34808.1 hPa Calm     92 % 0 mm 0.0 W/m2 CLR
06:47 -15.4 °C -16.1 °C 34808.1 hPa Calm     92 % 0 mm 0.0 W/m2 CLR
06:52 -15.4 °C -16.1 °C 34808.1 hPa Calm     92 % 0 mm 0.0 W/m2 CLR
06:57 -15.5 °C -16.2 °C 34808.1 hPa Calm     92 % 0 mm 0.0 W/m2 CLR
07:02 -15.5 °C -16.2 °C 34808.1 hPa Calm     92 % 0 mm 0.0 W/m2 CLR
07:07 -15.5 °C -16.2 °C 34808.1 hPa Calm     92 % 0 mm 0.0 W/m2 CLR
07:12 -15.4 °C -16.1 °C 34808.1 hPa Calm     92 % 0 mm 0.0 W/m2 CLR
07:17 -15.4 °C -16.1 °C 34808.1 hPa Calm     92 % 0 mm 0.0 W/m2 CLR
07:22 -15.4 °C -16.1 °C 34808.1 hPa Calm     92 % 0 mm 0.0 W/m2 CLR
07:27 -15.4 °C -16.1 °C 34818.2 hPa Calm     92 % 0 mm 0.0 W/m2 CLR
07:32 -15.4 °C -16.1 °C 34818.2 hPa Calm     92 % 0 mm 0.0 W/m2 CLR
07:37 -15.4 °C -16.1 °C 34818.2 hPa Calm     92 % 0 mm 0.0 W/m2 OVC
07:40 -15.5 °C -16.2 °C 34818.2 hPa Calm     92 % 0 mm 0.0 W/m2 OVC
07:45 -15.5 °C -16.2 °C 34818.2 hPa Calm     92 % 0 mm 0.0 W/m2 OVC
07:50 -15.5 °C -16.2 °C 34818.2 hPa Calm     92 % 0 mm 5.0 W/m2 OVC
07:55 -15.6 °C -16.2 °C 34818.2 hPa Calm     92 % 0 mm 9.0 W/m2 BKN
08:00 -15.6 °C -16.3 °C 34818.2 hPa Calm     92 % 0 mm 11.0 W/m2 BKN
08:05 -15.6 °C -16.3 °C 34818.2 hPa Calm     92 % 0 mm 14.0 W/m2 BKN
08:10 -15.6 °C -16.3 °C 34818.2 hPa Calm     92 % 0 mm 16.0 W/m2 BKN
08:15 -15.6 °C -16.2 °C 34831.8 hPa Calm     92 % 0 mm 19.0 W/m2 BKN
08:20 -15.4 °C -16.1 °C 34831.8 hPa Calm     92 % 0 mm 30.0 W/m2 BKN
08:25 -15.3 °C -15.9 °C 34831.8 hPa Calm     92 % 0 mm 44.0 W/m2 BKN
08:30 -15.2 °C -15.9 °C 34831.8 hPa Calm     92 % 0 mm 49.0 W/m2 SCT
08:35 -15.2 °C -15.8 °C 34831.8 hPa Calm     92 % 0 mm 63.0 W/m2 SCT
08:40 -15.1 °C -15.7 °C 34831.8 hPa Calm     92 % 0 mm 35.0 W/m2 BKN
08:45 -14.9 °C -15.6 °C 34831.8 hPa Calm     92 % 0 mm 28.0 W/m2 BKN
08:50 -14.7 °C -15.4 °C 34831.8 hPa Calm     92 % 0 mm 30.0 W/m2 BKN
08:53 -14.6 °C -15.2 °C 34831.8 hPa Calm     92 % 0 mm 116.0 W/m2 BKN
08:58 -14.3 °C -15.1 °C 34831.8 hPa Calm     92 % 0 mm 146.0 W/m2 FEW
09:03 -14.1 °C -14.9 °C 34831.8 hPa Calm     91 % 0 mm 163.0 W/m2 CLR
09:08 -13.9 °C -14.8 °C 34831.8 hPa Calm     90 % 0 mm 181.0 W/m2 CLR
09:13 -13.7 °C -14.6 °C 34831.8 hPa Calm     90 % 0 mm 202.0 W/m2 CLR
09:18 -13.4 °C -14.2 °C 34831.8 hPa Calm     90 % 0 mm 218.0 W/m2 CLR
09:23 -13.1 °C -14.1 °C 34831.8 hPa Calm     88 % 0 mm 236.0 W/m2 CLR
09:28 -12.7 °C -13.9 °C 34831.8 hPa Calm     86 % 0 mm 251.0 W/m2 CLR
09:33 -12.4 °C -13.7 °C 34831.8 hPa Calm     85 % 0 mm 271.0 W/m2 CLR
09:38 -12.1 °C -13.7 °C 34831.8 hPa Calm     82 % 0 mm 285.0 W/m2 CLR
09:43 -11.8 °C -13.5 °C 34831.8 hPa Calm     81 % 0 mm 299.0 W/m2 CLR
09:48 -11.5 °C -13.4 °C 34831.8 hPa Calm     79 % 0 mm 316.0 W/m2 CLR
09:53 -11.2 °C -13.4 °C 34831.8 hPa Calm     77 % 0 mm 332.0 W/m2 CLR
09:58 -11 °C -13.4 °C 34831.8 hPa Calm     75 % 0 mm 350.0 W/m2 CLR
10:03 -10.8 °C -13.3 °C 34831.8 hPa Calm     74 % 0 mm 366.0 W/m2 CLR
10:08 -10.6 °C -13.3 °C 34831.8 hPa Calm     72 % 0 mm 381.0 W/m2 CLR
10:13 -10.4 °C -13.3 °C 34831.8 hPa Calm     71 % 0 mm 396.0 W/m2 CLR
10:18 -10.3 °C -13.3 °C 34831.8 hPa Calm     70 % 0 mm 413.0 W/m2 CLR
10:23 -10.2 °C -13.2 °C 34831.8 hPa Calm     70 % 0 mm 429.0 W/m2 CLR
10:28 -10.2 °C -13.3 °C 34831.8 hPa Calm     69 % 0 mm 443.0 W/m2 CLR
10:33 -10 °C -13.1 °C 34831.8 hPa Calm     69 % 0 mm 457.0 W/m2 CLR
10:38 -9.8 °C -13.3 °C 34831.8 hPa Calm     66 % 0 mm 471.0 W/m2 CLR
10:43 -9.6 °C -13.1 °C 34831.8 hPa Calm     66 % 0 mm 489.0 W/m2 CLR
10:48 -9.4 °C -13.1 °C 34831.8 hPa Calm     65 % 0 mm 501.0 W/m2 CLR
10:53 -9.2 °C -12.9 °C 34831.8 hPa Calm     64 % 0 mm 515.0 W/m2 CLR
10:58 -9 °C -12.9 °C 34831.8 hPa Calm     63 % 0 mm 527.0 W/m2 CLR
11:03 -8.8 °C -13.2 °C 34831.8 hPa Calm     60 % 0 mm 545.0 W/m2 CLR
11:08 -8.7 °C -13.1 °C 34818.2 hPa NW 11.9 km/h 11.9 km/h 60 % 0 mm 557.0 W/m2 CLR
11:13 -8.7 °C -13 °C 34818.2 hPa Calm     60 % 0 mm 568.0 W/m2 CLR
11:19 -8.5 °C -12.9 °C 34818.2 hPa NW 12.9 km/h 12.9 km/h 59 % 0 mm 582.0 W/m2 CLR
11:24 -8.4 °C -13.1 °C 34818.2 hPa WNW 15.6 km/h 15.6 km/h 58 % 0 mm 596.0 W/m2 CLR
11:28 -8.4 °C -13.2 °C 34818.2 hPa WNW 18.2 km/h 18.2 km/h 57 % 0 mm 606.0 W/m2 CLR
11:34 -8.4 °C -13.2 °C 34818.2 hPa WNW 7.7 km/h 7.7 km/h 57 % 0 mm 617.0 W/m2 CLR
11:39 -8.4 °C -13 °C 34818.2 hPa NW 11.9 km/h 11.9 km/h 58 % 0 mm 628.0 W/m2 CLR
11:44 -8.3 °C -13.1 °C 34818.2 hPa NW 12.9 km/h 12.9 km/h 57 % 0 mm 640.0 W/m2 CLR
11:49 -8.3 °C -13.1 °C 34818.2 hPa NNW 9 km/h 9 km/h 57 % 0 mm 650.0 W/m2 CLR
11:54 -8.2 °C -12.9 °C 34818.2 hPa North 11.9 km/h 11.9 km/h 57 % 0 mm 661.0 W/m2 CLR
11:59 -8.2 °C -13.1 °C 34818.2 hPa Calm     56 % 0 mm 673.0 W/m2 CLR
12:04 -8 °C -13.4 °C 34808.1 hPa Calm     53 % 0 mm 680.0 W/m2 CLR
12:06 -7.9 °C -13.1 °C 34808.1 hPa Calm     55 % 0 mm 689.0 W/m2 CLR
12:11 -7.8 °C -13.2 °C 34808.1 hPa Calm     53 % 0 mm 696.0 W/m2 CLR
12:16 -7.8 °C -13.1 °C 34808.1 hPa North 9 km/h 9 km/h 54 % 0 mm 705.0 W/m2 CLR
12:21 -7.8 °C -13.2 °C 34808.1 hPa NNE 11.9 km/h 11.9 km/h 53 % 0 mm 712.0 W/m2 CLR
12:26 -7.7 °C -13.2 °C 34808.1 hPa Calm     53 % 0 mm 722.0 W/m2 CLR
12:31 -7.6 °C -13 °C 34808.1 hPa WNW 12.9 km/h 12.9 km/h 53 % 0 mm 731.0 W/m2 CLR
12:36 -7.6 °C -13 °C 34808.1 hPa NW 11.9 km/h 11.9 km/h 53 % 0 mm 738.0 W/m2 CLR
12:41 -7.6 °C -13.3 °C 34797.9 hPa NE 3.1 km/h 3.1 km/h 51 % 0 mm 744.0 W/m2 CLR
12:46 -7.4 °C -13.1 °C 34808.1 hPa Calm     51 % 0 mm 752.0 W/m2 CLR
12:51 -7.2 °C -13 °C 34797.9 hPa ENE 9 km/h 9 km/h 51 % 0 mm 761.0 W/m2 CLR
12:56 -7.2 °C -13.2 °C 34797.9 hPa East 7.7 km/h 7.7 km/h 50 % 0 mm 766.0 W/m2 CLR
13:01 -7.2 °C -13.2 °C 34797.9 hPa Calm     50 % 0 mm 772.0 W/m2 CLR
13:06 -7.2 °C -13.2 °C 34784.4 hPa North 9 km/h 9 km/h 50 % 0 mm 775.0 W/m2 CLR
13:11 -7.1 °C -12.7 °C 34784.4 hPa West 6 km/h 6 km/h 52 % 0 mm 780.0 W/m2 CLR
13:16 -7 °C -12.9 °C 34784.4 hPa Calm     50 % 0 mm 786.0 W/m2 CLR
13:21 -6.9 °C -12.9 °C 34784.4 hPa WSW 2.6 km/h   50 % 0 mm 789.0 W/m2 CLR
13:26 -6.9 °C -13.2 °C 34784.4 hPa Calm     48 % 0 mm 802.0 W/m2 CLR
13:31 -6.8 °C -12.9 °C 34784.4 hPa NE 3.1 km/h 3.1 km/h 49 % 0 mm 796.0 W/m2 CLR
13:36 -6.8 °C -12.9 °C 34774.2 hPa ESE 9 km/h 9 km/h 49 % 0 mm 802.0 W/m2 CLR
13:41 -6.7 °C -12.7 °C 34774.2 hPa Calm     50 % 0 mm 809.0 W/m2 CLR
13:46 -6.7 °C -13 °C 34774.2 hPa East 12.9 km/h 12.9 km/h 48 % 0 mm 805.0 W/m2 CLR
13:51 -6.7 °C -12.8 °C 34774.2 hPa ENE 9 km/h 9 km/h 49 % 0 mm 809.0 W/m2 CLR
13:56 -6.5 °C -12.8 °C 34760.7 hPa NNE 11.9 km/h 11.9 km/h 48 % 0 mm 821.0 W/m2 CLR
14:01 -6.5 °C -12.9 °C 34760.7 hPa NNE 11.9 km/h 11.9 km/h 47 % 0 mm 833.0 W/m2 CLR
14:06 -6.5 °C -13.3 °C 34760.7 hPa NNW 26.9 km/h 26.9 km/h 45 % 0 mm 821.0 W/m2 CLR
14:11 -6.4 °C -13.3 °C 34760.7 hPa NNW 29.8 km/h 29.8 km/h 45 % 0 mm 817.0 W/m2 CLR
14:16 -6.5 °C -13.2 °C 34760.7 hPa NNW 20.9 km/h 20.9 km/h 46 % 0 mm 803.0 W/m2 CLR
14:21 -6.5 °C -13.4 °C 34760.7 hPa NNW 15 km/h 15 km/h 45 % 0 mm 807.0 W/m2 CLR
14:26 -6.4 °C -12.8 °C 34750.5 hPa NNW 11.9 km/h 11.9 km/h 48 % 0 mm 805.0 W/m2 CLR
14:31 -6.4 °C -13.8 °C 34750.5 hPa Calm     42 % 0 mm 798.0 W/m2 CLR
14:36 -6.3 °C -13.3 °C 34750.5 hPa ENE 23.8 km/h 23.8 km/h 44 % 0 mm 803.0 W/m2 CLR
14:41 -6.3 °C -13.7 °C 34750.5 hPa Calm     42 % 0 mm 798.0 W/m2 CLR
14:46 -6.3 °C -13.7 °C 34740.4 hPa Calm     42 % 0 mm 796.0 W/m2 CLR
14:51 -6.2 °C -13.5 °C 34740.4 hPa Calm     43 % 0 mm 796.0 W/m2 CLR
14:56 -6.2 °C -13.2 °C 34740.4 hPa North 12.9 km/h 12.9 km/h 44 % 0 mm 791.0 W/m2 CLR
15:01 -6.2 °C -13.1 °C 34740.4 hPa NNW 15.6 km/h 15.6 km/h 45 % 0 mm 784.0 W/m2 CLR
15:06 -6.2 °C -13.2 °C 34726.8 hPa NE 10.3 km/h 10.3 km/h 44 % 0 mm 780.0 W/m2 CLR
15:11 -6.1 °C -13.4 °C 34726.8 hPa ENE 17.9 km/h 17.9 km/h 43 % 0 mm 775.0 W/m2 CLR
15:16 -6.2 °C -13.7 °C 34726.8 hPa ENE 6 km/h   42 % 0 mm 772.0 W/m2 CLR
15:21 -6.2 °C -13.5 °C 34726.8 hPa Calm     43 % 0 mm 765.0 W/m2 CLR
15:26 -6.2 °C -13.2 °C 34726.8 hPa East 12.9 km/h 12.9 km/h 44 % 0 mm 758.0 W/m2 CLR
15:31 -6.2 °C -13.6 °C 34716.7 hPa Calm     42 % 0 mm 752.0 W/m2 CLR
15:36 -6 °C -13.7 °C 34716.7 hPa SW 5.1 km/h 5.1 km/h 41 % 0 mm 745.0 W/m2 CLR
15:41 -5.9 °C -13.6 °C 34716.7 hPa South 9 km/h 9 km/h 41 % 0 mm 737.0 W/m2 CLR
15:46 -5.8 °C -13.7 °C 34703.1 hPa SW 9 km/h   40 % 0 mm 728.0 W/m2 CLR
15:51 -5.8 °C -13.5 °C 34703.1 hPa North 3.1 km/h 3.1 km/h 41 % 0 mm 717.0 W/m2 CLR
15:56 -5.7 °C -12.9 °C 34703.1 hPa North 17.9 km/h 17.9 km/h 43 % 0 mm 710.0 W/m2 CLR
16:01 -5.7 °C -13 °C 34703.1 hPa NW 17.9 km/h 17.9 km/h 43 % 0 mm 703.0 W/m2 CLR
16:06 -5.9 °C -13.6 °C 34703.1 hPa Calm     41 % 0 mm 693.0 W/m2 CLR
16:11 -5.8 °C -13.5 °C 34703.1 hPa North 20.9 km/h 20.9 km/h 41 % 0 mm 682.0 W/m2 CLR
16:16 -5.9 °C -13.3 °C 34703.1 hPa ENE 11.9 km/h 11.9 km/h 42 % 0 mm 668.0 W/m2 CLR
16:21 -5.8 °C -13.4 °C 34693 hPa NE 15 km/h 15 km/h 41 % 0 mm 659.0 W/m2 CLR
16:26 -5.7 °C -13.6 °C 34693 hPa NE 9 km/h 9 km/h 40 % 0 mm 652.0 W/m2 CLR
16:31 -5.7 °C -13.6 °C 34693 hPa Calm     40 % 0 mm 638.0 W/m2 CLR
16:36 -5.6 °C -13.3 °C 34693 hPa ENE 9 km/h 9 km/h 41 % 0 mm 631.0 W/m2 CLR
16:41 -5.6 °C -13.7 °C 34682.8 hPa Calm     39 % 0 mm 617.0 W/m2 CLR
16:46 -5.5 °C -13.8 °C 34682.8 hPa Calm     38 % 0 mm 606.0 W/m2 CLR
16:51 -5.4 °C -13.5 °C 34682.8 hPa North 6 km/h 6 km/h 39 % 0 mm 592.0 W/m2 CLR
16:56 -5.3 °C -13.5 °C 34682.8 hPa Calm     39 % 0 mm 580.0 W/m2 CLR
17:01 -5.3 °C -13.7 °C 34682.8 hPa ESE 17.9 km/h 17.9 km/h 38 % 0 mm 568.0 W/m2 CLR
17:06 -5.4 °C -13.4 °C 34669.3 hPa ENE 12.9 km/h 12.9 km/h 40 % 0 mm 554.0 W/m2 CLR
17:11 -5.5 °C -13.6 °C 34669.3 hPa NE 9 km/h 9 km/h 39 % 0 mm 541.0 W/m2 CLR
17:16 -5.6 °C -13.7 °C 34669.3 hPa NE 9 km/h 9 km/h 39 % 0 mm 524.0 W/m2 CLR
17:21 -5.6 °C -13.7 °C 34669.3 hPa NE 15 km/h 15 km/h 39 % 0 mm 513.0 W/m2 CLR
17:26 -5.7 °C -13.7 °C 34669.3 hPa ENE 15 km/h 15 km/h 39 % 0 mm 497.0 W/m2 CLR
17:31 -5.7 °C -13.7 °C 34669.3 hPa ENE 6 km/h   39 % 0 mm 485.0 W/m2 CLR
17:36 -5.6 °C -13.7 °C 34669.3 hPa ENE 15 km/h 15 km/h 39 % 0 mm 469.0 W/m2 CLR
17:41 -5.5 °C -13.6 °C 34669.3 hPa North 9 km/h   39 % 0 mm 457.0 W/m2 CLR
17:46 -5.5 °C -13.6 °C 34669.3 hPa NE 15 km/h 15 km/h 39 % 0 mm 441.0 W/m2 CLR
17:51 -5.5 °C -13.8 °C 34669.3 hPa NE 23.8 km/h 23.8 km/h 38 % 0 mm 425.0 W/m2 CLR
17:56 -5.6 °C -13.4 °C 34669.3 hPa NE 9 km/h 9 km/h 40 % 0 mm 411.0 W/m2 CLR
18:01 -5.6 °C -13.7 °C 34669.3 hPa ENE 20.9 km/h 20.9 km/h 39 % 0 mm 394.0 W/m2 CLR
18:06 -5.6 °C -13.7 °C 34669.3 hPa NE 20.9 km/h 20.9 km/h 39 % 0 mm 378.0 W/m2 CLR
18:11 -5.7 °C -13.8 °C 34669.3 hPa NE 17.9 km/h 17.9 km/h 39 % 0 mm 362.0 W/m2 CLR
18:16 -5.7 °C -13.8 °C 34669.3 hPa NNE 17.9 km/h 17.9 km/h 39 % 0 mm 346.0 W/m2 CLR
18:21 -5.7 °C -13.9 °C 34669.3 hPa NNE 9 km/h 9 km/h 38 % 0 mm 329.0 W/m2 CLR
18:26 -5.6 °C -13.9 °C 34669.3 hPa NNE 10.3 km/h 10.3 km/h 38 % 0 mm 311.0 W/m2 SCT
18:27 -5.6 °C -13.7 °C 34669.3 hPa NE 10.3 km/h 10.3 km/h 39 % 0 mm 309.0 W/m2 BKN
18:32 -5.6 °C -13.7 °C 34669.3 hPa NE 15.6 km/h 15.6 km/h 39 % 0 mm 294.0 W/m2 OVC
18:37 -5.7 °C -13.9 °C 34669.3 hPa NNE 17.9 km/h 17.9 km/h 38 % 0 mm 278.0 W/m2 OVC
18:42 -5.7 °C -13.8 °C 34669.3 hPa ENE 9 km/h 9 km/h 39 % 0 mm 262.0 W/m2 OVC
18:47 -5.7 °C -13.8 °C 34669.3 hPa NE 9 km/h 9 km/h 39 % 0 mm 241.0 W/m2 OVC
18:52 -5.8 °C -13.8 °C 34669.3 hPa ENE 20.9 km/h 20.9 km/h 39 % 0 mm 225.0 W/m2 OVC
18:57 -5.8 °C -13.9 °C 34669.3 hPa Calm     39 % 0 mm 206.0 W/m2 OVC
19:02 -5.8 °C -13.8 °C 34669.3 hPa NE 12.9 km/h 12.9 km/h 39 % 0 mm 186.0 W/m2 OVC
19:07 -5.8 °C -13.5 °C 34669.3 hPa NNE 9 km/h 9 km/h 41 % 0 mm 165.0 W/m2 OVC
19:12 -5.9 °C -13.9 °C 34669.3 hPa NNE 15 km/h 15 km/h 39 % 0 mm 148.0 W/m2 OVC
19:17 -5.9 °C -14 °C 34669.3 hPa North 15 km/h 15 km/h 39 % 0 mm 130.0 W/m2 OVC
19:22 -5.9 °C -14 °C 34669.3 hPa NE 11.9 km/h 12.2 km/h 39 % 0 mm 113.0 W/m2 OVC
19:27 -6 °C -13.9 °C 34669.3 hPa NE 11.9 km/h 11.9 km/h 40 % 0 mm 97.0 W/m2 OVC
19:32 -6.1 °C -13.9 °C 34669.3 hPa North 17.9 km/h 17.9 km/h 40 % 0 mm 79.0 W/m2 OVC
19:37 -6.2 °C -13.8 °C 34669.3 hPa NNE 10.3 km/h 10.3 km/h 41 % 0 mm 62.0 W/m2 OVC
19:42 -6.2 °C -13.8 °C 34669.3 hPa NNE 9 km/h 9 km/h 41 % 0 mm 47.0 W/m2 OVC
19:43 -6.2 °C -13.8 °C 34669.3 hPa NNE 9 km/h 9 km/h 41 % 0 mm 47.0 W/m2 OVC
19:48 -6.3 °C -13.9 °C 34669.3 hPa North 9 km/h 9 km/h 41 % 0 mm 35.0 W/m2 OVC
19:53 -6.3 °C -14 °C 34669.3 hPa NNE 9 km/h   41 % 0 mm 21.0 W/m2 OVC
19:58 -6.5 °C -13.9 °C 34682.8 hPa NE 9 km/h 9 km/h 42 % 0 mm 14.0 W/m2 OVC
20:03 -6.7 °C -13.8 °C 34682.8 hPa Calm     43 % 0 mm 11.0 W/m2 OVC
20:08 -6.8 °C -13.6 °C 34682.8 hPa ENE 6 km/h 6 km/h 45 % 0 mm 11.0 W/m2 OVC
20:13 -6.9 °C -13.6 °C 34682.8 hPa Calm     46 % 0 mm 7.0 W/m2 OVC
20:18 -7 °C -13.2 °C 34682.8 hPa Calm     48 % 0 mm 5.0 W/m2 OVC
20:21 -7.1 °C -13.3 °C 34682.8 hPa Calm     48 % 0 mm 0.0 W/m2 OVC
20:26 -7.2 °C -13.2 °C 34682.8 hPa Calm     49 % 0 mm 0.0 W/m2 OVC
20:31 -7.3 °C -13.2 °C 34682.8 hPa Calm     50 % 0 mm 0.0 W/m2 OVC
20:36 -7.4 °C -13.3 °C 34693 hPa Calm     50 % 0 mm 0.0 W/m2 CLR
20:41 -7.6 °C -13.3 °C 34693 hPa Calm     51 % 0 mm 0.0 W/m2 CLR
20:46 -7.6 °C -13.2 °C 34693 hPa Calm     52 % 0 mm 0.0 W/m2 CLR
20:51 -7.7 °C -13.3 °C 34693 hPa Calm     52 % 0 mm 0.0 W/m2 CLR
20:56 -7.8 °C -13.1 °C 34693 hPa Calm     54 % 0 mm 0.0 W/m2 CLR
21:01 -8.1 °C -13 °C 34693 hPa Calm     56 % 0 mm 0.0 W/m2 CLR
21:06 -8.4 °C -13 °C 34703.1 hPa Calm     58 % 0 mm 0.0 W/m2 CLR
21:11 -8.6 °C -13.1 °C 34703.1 hPa Calm     59 % 0 mm 0.0 W/m2 CLR
21:16 -8.8 °C -13 °C 34703.1 hPa Calm     61 % 0 mm 0.0 W/m2 CLR
21:21 -9.2 °C -13.2 °C 34703.1 hPa Calm     62 % 0 mm 0.0 W/m2 CLR
21:26 -9.4 °C -13.3 °C 34703.1 hPa Calm     63 % 0 mm 0.0 W/m2 CLR
21:31 -9.6 °C -13.3 °C 34716.7 hPa Calm     64 % 0 mm 0.0 W/m2 CLR
21:36 -9.7 °C -13.4 °C 34716.7 hPa Calm     64 % 0 mm 0.0 W/m2 CLR
21:41 -9.8 °C -13.3 °C 34716.7 hPa Calm     66 % 0 mm 0.0 W/m2 CLR
21:46 -9.9 °C -13.3 °C 34716.7 hPa Calm     67 % 0 mm 0.0 W/m2 CLR
21:51 -10.1 °C -13.3 °C 34726.8 hPa Calm     68 % 0 mm 0.0 W/m2 CLR
21:56 -10.2 °C -13.4 °C 34726.8 hPa Calm     68 % 0 mm 0.0 W/m2 CLR
22:01 -10.3 °C -13.4 °C 34726.8 hPa Calm     69 % 0 mm 0.0 W/m2 CLR
22:06 -10.4 °C -13.4 °C 34726.8 hPa Calm     70 % 0 mm 0.0 W/m2 CLR
22:11 -10.6 °C -13.4 °C 34726.8 hPa Calm     71 % 0 mm 0.0 W/m2 CLR
22:16 -10.7 °C -13.4 °C 34726.8 hPa Calm     72 % 0 mm 0.0 W/m2 CLR
22:21 -10.8 °C -13.5 °C 34726.8 hPa Calm     72 % 0 mm 0.0 W/m2 CLR
22:26 -10.9 °C -13.6 °C 34726.8 hPa Calm     73 % 0 mm 0.0 W/m2 CLR
22:31 -11.1 °C -13.6 °C 34726.8 hPa Calm     74 % 0 mm 0.0 W/m2 CLR
22:36 -11.2 °C -13.5 °C 34726.8 hPa Calm     75 % 0 mm 0.0 W/m2 CLR
22:41 -11.2 °C -13.5 °C 34726.8 hPa Calm     75 % 0 mm 0.0 W/m2 CLR
22:46 -11.2 °C -13.6 °C 34740.4 hPa Calm     75 % 0 mm 0.0 W/m2 CLR
22:51 -11.3 °C -13.7 °C 34740.4 hPa Calm     75 % 0 mm 0.0 W/m2 CLR
22:56 -11.3 °C -13.6 °C 34726.8 hPa Calm     76 % 0 mm 0.0 W/m2 CLR
23:01 -11.4 °C -13.7 °C 34740.4 hPa Calm     76 % 0 mm 0.0 W/m2 CLR
23:06 -11.5 °C -13.8 °C 34740.4 hPa Calm     76 % 0 mm 0.0 W/m2 CLR
23:11 -11.6 °C -13.7 °C 34740.4 hPa Calm     77 % 0 mm 0.0 W/m2 CLR
23:16 -11.6 °C -13.7 °C 34740.4 hPa Calm     77 % 0 mm 0.0 W/m2 CLR
23:21 -11.6 °C -13.8 °C 34740.4 hPa Calm     77 % 0 mm 0.0 W/m2 CLR
23:26 -11.7 °C -13.8 °C 34740.4 hPa Calm     77 % 0 mm 0.0 W/m2 CLR
23:31 -11.8 °C -13.8 °C 34740.4 hPa Calm     78 % 0 mm 0.0 W/m2 CLR
23:36 -11.8 °C -13.8 °C 34740.4 hPa Calm     78 % 0 mm 0.0 W/m2 CLR
23:41 -11.7 °C -13.8 °C 34740.4 hPa Calm     78 % 0 mm 0.0 W/m2 CLR
23:46 -11.8 °C -13.8 °C 34740.4 hPa Calm     78 % 0 mm 0.0 W/m2 CLR
23:51 -11.9 °C -13.9 °C 34740.4 hPa Calm     78 % 0 mm 0.0 W/m2 CLR
23:56 -12 °C -14 °C 34740.4 hPa Calm     78 % 0 mm 0.0 W/m2 CLR
Lo Temps de Massalio
Compliments of Weather Underground - 1.25 mb